Location: Castro Valley
(37.6941°N, 122.0863°W)
Time: 13:43:57
(UTC+00:00)

CZ-2D R/B - Pass Details

Date: 19 May 2025
Orbit: 790 x 841 km, 98.8° (Epoch: 16 June)

Event Time Altitude Azimuth Distance (km) Brightness Sun altitude
Rises 12:01:40 0° 352° (N) 3,401 5.7 -10.0°
Reaches altitude 10° 12:05:14 10° 328° (NNW) 2,464 4.7 -9.4°
Maximum altitude 12:07:52 14° 299° (WNW) 2,200 4.1 -9.0°
Drops below altitude 10° 12:10:29 10° 270° (W) 2,457 4.1 -8.5°
Enters shadow 12:11:31 - 261° (W) 2,677 4.2 -8.3°
